Showing default

KANOPUS-V 5, 43876

Orbit data source: Space-Track

KANOPUS-V 5, 43876 is a payload satellite owned by VNIIEM (CIS) in SSO that was launched on Thu, 27 Dec 2018 UTC via a SOYUZ-2-1A launch vehicle from the Vostochny Cosmodrome (VOSTO). Payload-class satellites include a variety of spacecraft equipped with specific instruments for various scientific and technological missions. These include communications satellites like Starlink; space stations such as the ISS; scientific satellites like the Hubble; Earth observation satellites from companies like Planet Labs, Umbra, and HawkEye 360; GPS; miniature CubeSats for education and research; and military/defense satellites.

Loading next visibility...
Identifier
43876, 2018-111A
Orbit
SSO
Country
Flag of CISCIS
Related business
Manufacturer
VNIIEM
Mission
Operational Civil Imaging
Bus & Motor
KANOPUS, Unknown motor
Mass
473 kg wet, 473 kg dry
Launch date (UTC)
2018-12-27 (7 years ago)
Launch vehicle
SOYUZ-2-1A
Launch site
Vostochny Cosmodrome (VOSTO)
Object type
Payload
Rocket body
Debris
Shape & HBR
Box + 2 Pan, 3.0 m
Radar Cross Section
1.665 m², Large (>1 m²)

Expand to show TLE details & history
Last TLE update: 11 hours ago

TLE from 11 hours ago
0 KANOPUS-V 5
1 43876U 18111A   25292.87162554  .00006798  00000-0  29149-3 0  9996
2 43876  97.3672 197.9773 0001850  87.7206 272.4243 15.23059887378203
Epoch: 2025-10-19T20:55Z
TLE epoch observation values (Epoch: 2025-10-19T20:55:08.446Z)
Latitude
-0°
Longitude
-144.38996°
Altitude
499.659 km
Speed
7.615 km/s
True Right ascension
13h 11m 54s
True Declination
0° 00' 00"
Sunlit
Object was in daylight at epoch
Visualization orbit readout
Latitude
Unknown
Longitude
Unknown
Altitude
Unknown
Speed
Unknown
Apparent Right ascension
Unknown
Apparent Declination
Unknown
Sunlit
N/A
Visualization observer readout
Local Sidereal Time
02:21:33
Azimuth
Unknown
Elevation
Unknown
Doppler factor
Unknown
Orbital elements
Apogee altitude
494.849 km
Perigee altitude
492.306 km
Semi-major axis
6,871.714 km
Eccentricity
0.00019
Inclination
97.3672°
RAAN
197.9773°
Arg. of periapsis
87.7206°
True anomaly
272.40312°
Mean anomaly
272.4243°
Eccentric anomaly
272.41371°
Mean motion
3.81018 °/min
Orbital period
94.48 mins
BSTAR
0.00029149
Loading maneuver chart data...
Computing Atmospheric mass density...
Loading historical data...
Loading historical data...
Loading historical data...
Loading historical data...
Loading historical data...
Loading historical data...
Loading historical data...

Documentation

Showing up to 5 results
|